This demonstration page uses our WeatherBlox Daily Observations layout. Learn more.

Left ArrowRight Arrow

39.01783, -85.05884

Hourly Observations for May 8, 2018

Temp ( °F °C ) Dew Point ( °F °C ) Humidity (%) Winds ( mph kmh ) Pressure ( in mb ) Visibility ( mi km ) Precip ( " mm )
12:52 am 00:52 Clear 62 16.7 38 3.3 41 41 NE 8 13 30.14 1021 10 16 0.00 0.00
1:52 am 01:52 Clear 59 15 42 5.6 54 54 ENE 9 15 30.14 1021 10 16 0.00 0.00
2:52 am 02:52 Clear 56 13.3 43 6.1 62 62 ENE 7 11 30.13 1020 10 16 0.00 0.00
3:52 am 03:52 Clear 53 11.7 43 6.1 69 69 E 6 9 30.13 1020 10 16 0.00 0.00
4:52 am 04:52 Clear 52 11.1 43 6.1 72 72 Calm 30.14 1021 10 16 0.00 0.00
5:52 am 05:52 Mostly Clear 54 12.2 42 5.6 64 64 NNE 5 7 30.14 1021 10 16 0.00 0.00
6:52 am 06:52 Mostly Sunny 51 10.6 43 6.1 74 74 N 3 6 30.14 1021 10 16 0.00 0.00
7:52 am 07:52 Sunny 54 12.2 45 7.2 72 72 N 3 6 30.16 1021 10 16 0.00 0.00
8:52 am 08:52 Sunny 59 15 47 8.3 64 64 NNW 6 9 30.17 1022 10 16 0.00 0.00
9:52 am 09:52 Mostly Sunny 64 17.8 46 7.8 52 52 N 5 7 30.18 1022 10 16 0.00 0.00
10:52 am 10:52 Mostly Sunny 68 20 44 6.7 42 42 VRB 7 11 30.17 1022 10 16 0.00 0.00
11:52 am 11:52 Mostly Sunny 70 21.1 41 5 35 35 NNE 5 7 30.16 1021 10 16 0.00 0.00
12:52 pm 12:52 Sunny 71 21.7 42 5.6 35 35 WSW 5 7 30.14 1021 10 16 0.00 0.00
1:52 pm 13:52 Sunny 73 22.8 43 6.1 34 34 Calm 30.13 1020 10 16 0.00 0.00
2:52 pm 14:52 Mostly Sunny 74 23.3 44 6.7 34 34 S 5 7 30.11 1020 10 16 0.00 0.00
3:52 pm 15:52 Mostly Sunny 75 23.9 46 7.8 36 36 SSW 8 13 30.10 1019 10 16 0.00 0.00
4:52 pm 16:52 Mostly Sunny 75 23.9 46 7.8 36 36 S 8 13 30.08 1019 10 16 0.00 0.00
5:52 pm 17:52 Mostly Sunny 75 23.9 46 7.8 36 36 VRB 3 6 30.08 1019 10 16 0.00 0.00
6:52 pm 18:52 Mostly Sunny 76 24.4 47 8.3 36 36 W 3 6 30.06 1018 10 16 0.00 0.00
7:52 pm 19:52 Mostly Sunny 75 23.9 46 7.8 36 36 Calm 30.05 1018 10 16 0.00 0.00
8:52 pm 20:52 Mostly Clear 69 20.6 50 10 51 51 WNW 3 6 30.06 1018 10 16 0.00 0.00
9:52 pm 21:52 Mostly Clear 65 18.3 48 8.9 54 54 Calm 30.06 1018 10 16 0.00 0.00
10:52 pm 22:52 Mostly Clear 62 16.7 48 8.9 60 60 Calm 30.06 1018 10 16 0.00 0.00
11:52 pm 23:52 Mostly Clear 60 15.6 49 9.4 67 67 Calm 30.06 1018 10 16 0.00 0.00

Powered by AerisWeather